Location: Spring Creek
(38.2870°N, 100.2160°W)
Time: 09:18:40
(UTC+00:00)

ARIANE 5 R/B - Pass Details

Date: 08 May 2021
Orbit: 748 x 795 km, 98.7° (Epoch: 21 June)

Event Time Altitude Azimuth Distance (km) Brightness Sun altitude
Rises 09:50:03 0° 12° (NNE) 3,282 6.7 -18.5°
Reaches altitude 10° 09:52:24 10° 13° (NNE) 2,343 5.8 -18.1°
Maximum altitude 09:57:34 88° 287° (WNW) 780 2.5 -17.3°
Enters shadow 10:00:57 22° 196° (SSW) 1,637 3.7 -16.8°
